SCP
-0 -0 -0 -0 -0 -0 -0 -0 -0 0 -0 -0 -0 -0 -0 -0 0 0 0 0 0 0 0 0 0 0 0 0 0 0 0 0 0
-0 -0 -0 -0 -0 -0 -0 -0 -0 0 -0 -0 -0 0 -0 -0 0 0 0 0 0 0 0 0 0 0 0 -0 0 -0 -0 -0 0
-0 -0 -0 -0 -0 -0 -0 -0 -0 0 -0 0 -0 0 0 0 0 0 0 0 0 0 0 0 0 -0 -0 -0 -0 -0 -0 -0 0
-0 -0 -0 -0 -0 -0 -0 -0 -0 -0 -0 0 0 0 0 0 0 0 0 0 0 0 0 -0 -0 -0 -0 -0 -0 0 -0 0 0
-0 -0 -0 -0 -0 -0 -0 -0 -0 -0 -0 0 0 0 0 0 0 0 0 0 0 0 -0 -0 -0 -0 -0 -0 -0 0 0 0 -0
-0 -0 -0 -0 -0 -0 -0 -0 -0 -0 -0 -0 0 0 0 0 0 0 0 -0 -0 -0 0 -0 -0 -0 -0 -0 0 -0 -0 -0 0
-0 -0 -0 -0 -0 -0 -0 -0 -0 -0 -0 -0 0 0 0 0 0 -0 -0 -0 0 -0 0 -0 0 0 0 -0 -0 -0 0 0 0
-0 -0 -0 -0 -0 -0 -0 -0 -0 -0 -0 0 0 0 0 -0 -0 -0 -0 -0 0 0 0 0 -0 -0 -0 -0 -0 0 0 0 0
-0 -0 -0 -0 -0 -0 -0 -0 -0 -0 -0 -0 -0 -0 0 0 0 0 0 0 0 0 -0 -0 -0 -0 -0 -0 -0 -0 0 0 0
-0 -0 -0 -0 -0 -0 -0 -0 -0 -0 -0 -0 0 0 0 0 0 0 0 0 0 -0 -0 -0 -0 -0 -0 -0 -0 0 0 -0 0
-0 -0 -0 -0 -0 -0 -0 -0 -0 -0 -0 -0 -0 -0 -0 -0 0 -0 -0 -0 -0 -0 -0 -0 -0 -0 -0 -0 -0 0 0 0 0
-0 -0 0 0 -0 -0 -0 -0 -0 -0 -0 -0 0 0 0 -0 -0 -0 -0 -0 -0 -0 -0 -0 -0 -0 -0 -0 -0 0 0 0 0
-0 0 0 0 0 -0 -0 -0 -0 -0 -0 0 0 -0 -0 -0 -0 -0 -0 -0 -0 -0 -0 -0 -0 -0 -0 -0 -0 0 0 0 0
-0 -0 0 0 0 -0 -0 -0 -0 0 0 0 0 0 -0 -0 -0 -0 -0 -0 -0 -0 -0 -0 -0 -0 -0 -0 -0 0 -0 -0 0
0 0 0 0 0 1 0 -0 0 0 0 0 0 0 -0 -0 -0 0 -0 -0 -0 -0 -0 -0 -0 -0 0 0 0 0 0 0 0
0 0 0 0 0 1 1 0 0 0 0 0 -0 -0 -0 -0 -0 -0 -0 -0 -0 -0 -0 -0 -0 0 0 -0 -0 0 0 0 0
0 0 0 0 0 0 1 1 0 1 1 0 -0 -0 -0 -0 -0 -0 -0 0 0 0 -0 -0 -0 -0 -0 -0 -0 0 0 0 0
0 0 0 0 0 1 1 1 1 1 1 0 0 0 0 -0 0 0 0 0 0 -0 -0 0 -0 -0 -0 0 0 0 0 0 0
0 0 1 0 0 1 1 1 1 1 1 0 0 0 0 0 0 0 0 0 0 0 0 0 0 0 -0 0 0 0 0 0 0
0 1 1 0 0 1 1 2 2 1 1 1 1 1 0 0 0 0 0 0 0 0 0 0 0 0 0 0 0 0 0 0 0
Wind_Speed_500mb
50 52 49 50 50 46 46 43 42 37 33 29 27 29 29 27 23 21 18 14 5 6 6 7 9 13 16 20 17 17 15 15 15
44 49 51 53 49 45 45 45 44 40 36 33 29 27 30 25 25 23 17 16 14 12 5 9 13 15 15 18 17 13 10 12 14
41 43 48 50 51 49 44 44 44 41 40 40 35 37 39 27 23 19 19 21 8 5 8 13 14 13 15 15 9 10 2 3 7
44 50 53 52 51 47 44 44 46 45 43 47 46 45 40 35 23 18 15 15 12 6 7 10 14 10 9 8 10 7 4 3 5
41 48 55 53 53 52 46 47 47 47 46 43 47 47 45 38 32 28 25 19 14 14 15 13 11 9 9 10 7 5 4 4 7
40 46 51 52 53 56 51 47 47 47 46 44 44 46 44 42 38 30 24 18 19 21 15 10 9 6 9 10 11 8 10 13 15
44 51 55 55 55 55 53 50 49 48 45 44 45 42 40 35 33 31 26 23 21 15 13 8 9 13 15 13 13 14 14 14 15
43 48 54 56 56 56 53 52 50 49 46 46 47 42 38 36 33 30 26 23 18 13 14 12 17 19 18 17 15 13 15 16 17
51 53 58 59 58 58 57 55 54 50 48 45 43 42 40 39 38 31 24 21 19 15 14 21 23 22 20 19 15 19 21 22 18
55 59 60 61 63 62 60 57 56 55 51 47 44 40 39 43 40 35 31 29 21 20 26 28 26 23 20 18 19 23 22 28 19
59 62 64 64 62 58 57 55 54 51 50 51 47 45 43 42 42 39 32 27 28 30 31 31 28 25 22 20 22 23 23 21 25
59 67 66 65 65 62 59 58 56 56 54 53 49 50 50 46 40 37 32 33 32 35 36 34 29 26 24 21 22 25 24 28 24
54 61 64 59 60 61 60 59 60 61 57 57 54 53 47 45 42 37 36 32 38 41 36 33 32 30 26 22 23 30 29 31 21
56 57 56 57 62 70 67 68 66 64 61 60 57 54 48 45 41 38 36 38 44 42 40 37 35 31 28 26 25 32 32 37 19
41 53 53 58 63 72 76 75 71 68 65 61 59 54 51 49 46 45 42 44 46 44 41 39 37 34 31 30 30 29 30 28 26
24 47 58 59 65 74 83 82 78 74 65 63 61 55 55 52 51 48 46 49 49 49 45 38 36 34 30 30 32 31 29 26 24
27 38 53 58 62 66 81 85 80 76 69 65 60 58 59 57 55 52 52 54 51 46 44 39 37 36 35 33 33 32 34 29 27
23 35 47 54 64 70 88 91 85 78 74 69 62 61 62 60 59 56 57 50 49 42 41 38 39 37 35 38 37 36 35 31 25
19 34 44 51 56 59 69 85 91 83 76 69 67 66 66 63 58 60 55 53 55 52 46 42 39 40 34 33 33 34 31 34 34
17 29 43 51 62 60 71 89 88 87 77 75 71 66 65 59 53 55 56 52 51 57 51 49 46 42 40 41 34 35 36 35 32
Wind_Direction_500mb
183 181 183 183 182 181 182 184 188 188 188 193 185 169 163 156 144 149 165 191 183 170 184 245 241 231 292 297 299 296 292 294 304
181 186 187 188 183 182 182 182 187 186 187 184 177 176 165 157 146 160 160 171 162 126 115 121 305 302 299 299 296 287 283 292 296
180 181 181 181 181 184 183 184 186 183 187 185 179 168 152 143 130 136 149 146 153 288 293 283 283 281 286 282 276 274 270 13 292
167 172 175 176 179 182 181 180 184 183 188 188 184 181 173 167 187 211 227 225 248 253 297 282 268 255 254 256 250 227 233 293 316
170 171 171 173 175 177 177 179 181 183 187 194 184 190 195 207 210 214 218 222 231 263 265 229 222 222 227 214 200 192 182 137 107
166 169 169 170 173 178 179 179 179 183 187 191 185 187 192 194 199 200 208 214 226 231 218 190 184 186 171 169 170 143 128 120 105
168 170 172 172 176 180 181 182 180 181 184 185 180 181 188 183 181 193 197 209 214 199 179 181 169 162 164 153 128 120 115 114 114
169 176 177 177 178 180 181 181 178 176 179 183 180 179 180 178 178 180 197 204 199 192 173 167 168 161 151 138 117 123 128 124 116
176 183 184 182 180 181 183 184 177 174 174 178 179 175 177 180 188 192 194 194 185 186 169 165 159 151 151 142 146 150 143 126 126
187 187 188 186 186 185 185 185 181 178 177 178 182 183 181 186 190 189 189 192 185 175 160 158 153 153 147 144 146 137 134 127 122
194 194 193 193 189 186 185 184 184 180 180 186 191 193 192 191 192 195 193 187 178 164 161 159 157 153 148 145 140 134 135 129 120
200 198 199 197 192 187 182 181 181 182 186 190 196 201 200 198 198 195 188 185 172 167 164 161 160 155 149 146 145 137 134 123 122
205 205 203 196 191 185 183 182 184 188 190 194 200 203 201 199 198 195 189 181 175 173 168 166 162 159 154 150 150 142 142 127 134
204 200 196 197 188 186 183 189 190 191 196 200 201 204 199 200 197 193 189 182 179 175 169 173 169 168 164 160 157 150 145 138 145
201 197 191 190 185 185 188 193 193 194 201 204 205 205 199 199 196 192 190 186 178 179 181 179 175 176 169 171 165 161 155 151 153
213 201 194 190 186 186 192 195 196 197 202 207 209 201 200 197 194 194 191 186 185 183 184 182 177 176 172 175 179 177 171 164 158
222 203 198 192 188 188 190 196 199 202 205 211 205 197 198 196 196 195 192 188 189 187 185 184 183 182 182 184 183 186 186 180 176
239 214 201 196 194 196 195 195 196 200 204 207 200 198 197 197 197 196 191 186 189 190 194 191 188 187 187 187 190 192 189 183 180
261 216 204 198 198 198 195 194 194 197 204 204 201 197 197 195 193 188 188 188 193 194 198 196 194 187 185 193 194 204 193 190 187
271 216 207 202 199 199 199 197 193 197 205 203 202 201 195 193 188 184 186 189 194 196 197 193 195 192 192 195 197 192 194 194 193
Wind_Speed_850mb
50 52 49 50 50 46 46 43 42 37 33 29 27 29 29 27 23 21 18 14 5 6 6 7 9 13 16 20 17 17 15 15 15
44 49 51 53 49 45 45 45 44 40 36 33 29 27 30 25 25 23 17 16 14 12 5 9 13 15 15 18 17 13 10 12 14
41 43 48 50 51 49 44 44 44 41 40 40 35 37 39 27 23 19 19 21 8 5 8 13 14 13 15 15 9 10 2 3 7
44 50 53 52 51 47 44 44 46 45 43 47 46 45 40 35 23 18 15 15 12 6 7 10 14 10 9 8 10 7 4 3 5
41 48 55 53 53 52 46 47 47 47 46 43 47 47 45 38 32 28 25 19 14 14 15 13 11 9 9 10 7 5 4 4 7
40 46 51 52 53 56 51 47 47 47 46 44 44 46 44 42 38 30 24 18 19 21 15 10 9 6 9 10 11 8 10 13 15
44 51 55 55 55 55 53 50 49 48 45 44 45 42 40 35 33 31 26 23 21 15 13 8 9 13 15 13 13 14 14 14 15
43 48 54 56 56 56 53 52 50 49 46 46 47 42 38 36 33 30 26 23 18 13 14 12 17 19 18 17 15 13 15 16 17
51 53 58 59 58 58 57 55 54 50 48 45 43 42 40 39 38 31 24 21 19 15 14 21 23 22 20 19 15 19 21 22 18
55 59 60 61 63 62 60 57 56 55 51 47 44 40 39 43 40 35 31 29 21 20 26 28 26 23 20 18 19 23 22 28 19
59 62 64 64 62 58 57 55 54 51 50 51 47 45 43 42 42 39 32 27 28 30 31 31 28 25 22 20 22 23 23 21 25
59 67 66 65 65 62 59 58 56 56 54 53 49 50 50 46 40 37 32 33 32 35 36 34 29 26 24 21 22 25 24 28 24
54 61 64 59 60 61 60 59 60 61 57 57 54 53 47 45 42 37 36 32 38 41 36 33 32 30 26 22 23 30 29 31 21
56 57 56 57 62 70 67 68 66 64 61 60 57 54 48 45 41 38 36 38 44 42 40 37 35 31 28 26 25 32 32 37 19
41 53 53 58 63 72 76 75 71 68 65 61 59 54 51 49 46 45 42 44 46 44 41 39 37 34 31 30 30 29 30 28 26
24 47 58 59 65 74 83 82 78 74 65 63 61 55 55 52 51 48 46 49 49 49 45 38 36 34 30 30 32 31 29 26 24
27 38 53 58 62 66 81 85 80 76 69 65 60 58 59 57 55 52 52 54 51 46 44 39 37 36 35 33 33 32 34 29 27
23 35 47 54 64 70 88 91 85 78 74 69 62 61 62 60 59 56 57 50 49 42 41 38 39 37 35 38 37 36 35 31 25
19 34 44 51 56 59 69 85 91 83 76 69 67 66 66 63 58 60 55 53 55 52 46 42 39 40 34 33 33 34 31 34 34
17 29 43 51 62 60 71 89 88 87 77 75 71 66 65 59 53 55 56 52 51 57 51 49 46 42 40 41 34 35 36 35 32
Wind_Direction_850mb
183 181 183 183 182 181 182 184 188 188 188 193 185 169 163 156 144 149 165 191 183 170 184 245 241 231 292 297 299 296 292 294 304
181 186 187 188 183 182 182 182 187 186 187 184 177 176 165 157 146 160 160 171 162 126 115 121 305 302 299 299 296 287 283 292 296
180 181 181 181 181 184 183 184 186 183 187 185 179 168 152 143 130 136 149 146 153 288 293 283 283 281 286 282 276 274 270 13 292
167 172 175 176 179 182 181 180 184 183 188 188 184 181 173 167 187 211 227 225 248 253 297 282 268 255 254 256 250 227 233 293 316
170 171 171 173 175 177 177 179 181 183 187 194 184 190 195 207 210 214 218 222 231 263 265 229 222 222 227 214 200 192 182 137 107
166 169 169 170 173 178 179 179 179 183 187 191 185 187 192 194 199 200 208 214 226 231 218 190 184 186 171 169 170 143 128 120 105
168 170 172 172 176 180 181 182 180 181 184 185 180 181 188 183 181 193 197 209 214 199 179 181 169 162 164 153 128 120 115 114 114
169 176 177 177 178 180 181 181 178 176 179 183 180 179 180 178 178 180 197 204 199 192 173 167 168 161 151 138 117 123 128 124 116
176 183 184 182 180 181 183 184 177 174 174 178 179 175 177 180 188 192 194 194 185 186 169 165 159 151 151 142 146 150 143 126 126
187 187 188 186 186 185 185 185 181 178 177 178 182 183 181 186 190 189 189 192 185 175 160 158 153 153 147 144 146 137 134 127 122
194 194 193 193 189 186 185 184 184 180 180 186 191 193 192 191 192 195 193 187 178 164 161 159 157 153 148 145 140 134 135 129 120
200 198 199 197 192 187 182 181 181 182 186 190 196 201 200 198 198 195 188 185 172 167 164 161 160 155 149 146 145 137 134 123 122
205 205 203 196 191 185 183 182 184 188 190 194 200 203 201 199 198 195 189 181 175 173 168 166 162 159 154 150 150 142 142 127 134
204 200 196 197 188 186 183 189 190 191 196 200 201 204 199 200 197 193 189 182 179 175 169 173 169 168 164 160 157 150 145 138 145
201 197 191 190 185 185 188 193 193 194 201 204 205 205 199 199 196 192 190 186 178 179 181 179 175 176 169 171 165 161 155 151 153
213 201 194 190 186 186 192 195 196 197 202 207 209 201 200 197 194 194 191 186 185 183 184 182 177 176 172 175 179 177 171 164 158
222 203 198 192 188 188 190 196 199 202 205 211 205 197 198 196 196 195 192 188 189 187 185 184 183 182 182 184 183 186 186 180 176
239 214 201 196 194 196 195 195 196 200 204 207 200 198 197 197 197 196 191 186 189 190 194 191 188 187 187 187 190 192 189 183 180
261 216 204 198 198 198 195 194 194 197 204 204 201 197 197 195 193 188 188 188 193 194 198 196 194 187 185 193 194 204 193 190 187
271 216 207 202 199 199 199 197 193 197 205 203 202 201 195 193 188 184 186 189 194 196 197 193 195 192 192 195 197 192 194 194 193